STARLINK-32566, 61958

Orbit data source: Space-Track

STARLINK-32566, 61958 is a payload satellite owned by SpaceX/Seattle (US) in LEO that was launched on Thu, 14 Nov 2024 UTC via an FALCON 9 launch vehicle from the Air Force Western Test Range (AFWTR). Payload-class satellites include a variety of spacecraft equipped with specific instruments for various scientific and technological missions. These include communications satellites like Starlink; space stations such as the ISS; scientific satellites like the Hubble; Earth observation satellites from companies like Planet Labs, Umbra, and HawkEye 360; GPS; miniature CubeSats for education and research; and military/defense satellites.

Loading next visibility...
Identifier
61958, 2024-209V
Orbit
LEO
Country
Flag of USUS
Related business
Manufacturer
SpaceX/Seattle
Mission
Operational Commercial Communications
Bus & Motor
STARLINK V2M, Unknown motor
Mass
730 kg wet, ~700 kg dry
Launch date (UTC)
2024-11-14 (2 years ago)
Launch vehicle
FALCON 9
Launch site
Air Force Western Test Range (AFWTR)
Object type
Payload
Rocket body
Debris
Shape & HBR
Box + 2 Pan, 17.7 m
Radar Cross Section
33.884 m², Large (>1 m²)

Expand to show TLE details & history
Last TLE update: 1 day ago

TLE from 1 day ago
0 STARLINK-32566
1 61958U 24209V   26170.86905977  .00040857  00000-0  73844-3 0  9996
2 61958  53.1589  21.9113 0000915  65.6110 294.4995 15.49324033 90648
Epoch: 2026-06-19T20:51Z
TLE epoch observation values (Epoch: 2026-06-19T20:51:26.764Z)
Latitude
0.00004°
Longitude
160.95796°
Altitude
419.351 km
Speed
7.661 km/s
True Right ascension
01h 27m 38s
True Declination
0° 00' 00"
Sunlit
Object was in daylight at epoch
Visualization orbit readout
Latitude
Unknown
Longitude
Unknown
Altitude
Unknown
Speed
Unknown
Apparent Right ascension
Unknown
Apparent Declination
Unknown
Sunlit
N/A
Visualization observer readout
Local Sidereal Time
07:17:40
Azimuth
Unknown
Elevation
Unknown
Doppler factor
Unknown
Orbital elements
Apogee altitude
419.583 km
Perigee altitude
418.339 km
Semi-major axis
6,797.098 km
Eccentricity
0.00009
Inclination
53.1589°
RAAN
21.9113°
Arg. of periapsis
65.611°
True anomaly
294.48996°
Mean anomaly
294.4995°
Eccentric anomaly
294.49473°
Mean motion
3.87309 °/min
Orbital period
92.95 mins
BSTAR
0.00073844
Loading maneuver chart data...
Computing Atmospheric mass density...
Loading historical data...
Loading historical data...
Loading historical data...
Loading historical data...
Loading historical data...
Loading historical data...
Loading historical data...

Documentation

Showing up to 5 results
|